Theta_e
337 337 338 338 338 338 337 337 336 335 334 334 333 332 332 333 331 329 329 329 329 329 328 327 328 328 328 328 328 329 329 330 331 331 330 329 330 330 330 330 330 331 331 329 329 329 330 330 330 331 330 329 329 329 329 328 327 327 327 327 327 327 326
336 337 338 337 338 338 337 337 336 336 335 335 334 334 334 333 328 325 326 327 326 328 330 329 328 328 328 328 328 329 330 331 331 331 330 328 329 329 329 330 330 331 331 330 330 330 329 330 330 330 330 329 330 329 329 328 327 327 327 327 327 327 326
335 336 337 337 337 337 337 336 336 336 335 335 335 334 333 330 327 325 325 325 325 328 331 331 331 330 329 329 327 327 329 330 331 330 330 329 329 329 330 330 330 331 331 330 330 330 329 329 330 329 329 329 329 329 329 328 328 327 327 327 327 327 327
335 335 336 336 336 336 336 336 336 335 335 335 334 333 331 330 330 329 327 326 327 330 331 331 331 331 330 330 330 329 329 329 330 330 330 330 330 330 330 330 330 331 331 329 329 329 328 328 329 329 329 329 329 328 328 328 328 328 327 327 327 327 327
335 335 335 336 336 336 336 335 335 334 334 334 334 333 332 332 331 331 330 329 328 330 331 330 330 331 331 331 331 330 330 329 330 331 331 330 329 329 330 330 330 330 330 329 329 329 327 327 328 329 329 329 329 328 327 327 328 328 327 327 327 327 327
336 336 335 336 336 336 335 335 335 334 334 333 333 332 332 332 331 331 331 330 330 331 331 330 329 330 331 331 330 330 330 330 330 331 331 329 327 327 328 329 329 329 329 329 329 328 327 328 329 329 329 329 329 328 327 328 328 328 327 327 328 328 328
335 335 335 335 335 335 334 334 333 332 332 332 332 331 331 330 330 330 331 332 332 331 331 330 329 329 330 331 331 330 330 329 330 331 332 330 328 327 328 328 329 329 330 329 329 328 328 328 329 329 330 330 329 328 328 328 327 327 327 328 328 328 328
333 333 333 332 332 332 332 332 331 331 331 331 331 329 328 328 328 329 330 331 331 331 331 330 330 331 330 330 331 331 330 330 330 331 331 331 330 329 328 328 329 330 330 329 329 329 328 328 328 328 329 330 329 329 328 328 327 328 328 328 328 328 327
330 330 329 329 330 330 330 331 330 330 330 330 328 326 324 323 323 325 327 328 330 331 331 331 331 331 331 331 331 331 330 329 330 331 331 331 330 329 328 328 329 329 329 329 329 329 328 329 330 329 329 330 329 329 328 328 327 328 328 328 328 327 327
329 329 329 329 330 330 330 330 330 330 329 328 326 324 323 322 321 322 325 327 328 330 331 331 331 331 331 331 331 331 330 329 329 330 331 330 330 329 328 328 329 329 328 328 329 329 328 329 330 329 329 330 329 328 329 328 327 328 328 328 327 327 326
329 329 330 330 330 330 330 330 329 329 328 327 326 325 325 324 322 323 325 326 327 329 330 330 329 329 330 331 331 331 331 329 329 330 330 329 329 329 328 329 329 329 328 329 329 329 329 329 330 329 329 330 329 328 328 328 327 328 328 327 327 326 326
328 329 329 330 330 329 329 329 329 328 328 327 327 327 326 324 323 325 327 327 327 328 329 328 328 328 330 330 330 331 331 330 329 329 330 330 329 328 329 329 329 328 327 328 329 328 329 329 329 329 329 329 329 329 328 327 327 328 328 326 326 326 325
325 325 325 326 327 327 327 327 328 328 328 328 327 327 326 324 325 326 327 328 329 329 328 328 327 328 328 329 329 331 331 330 329 329 331 330 329 329 330 330 327 326 326 327 327 327 328 329 329 329 329 329 329 329 328 328 328 328 327 326 326 325 325
323 323 323 324 324 325 326 326 327 327 328 328 327 327 326 325 325 326 326 327 328 328 328 328 327 327 328 329 331 331 329 330 330 330 330 330 329 329 329 329 327 327 327 327 327 326 327 329 330 329 329 329 329 329 329 328 328 328 327 326 326 325 325
322 323 323 324 324 325 326 326 327 327 328 327 327 327 326 325 325 325 325 325 326 326 326 327 328 329 328 330 331 330 329 329 330 330 329 329 329 328 328 328 327 328 328 328 328 326 326 328 329 330 329 329 329 329 328 328 328 327 326 326 325 325 325
323 323 324 325 325 326 326 327 327 327 328 327 327 327 326 326 326 325 324 324 326 326 326 326 328 329 329 329 330 329 328 328 328 329 329 328 328 327 327 327 327 328 329 329 328 327 327 328 330 330 329 328 328 328 327 328 327 327 326 326 325 325 324
323 324 325 325 326 326 326 327 327 327 327 327 327 327 326 326 326 326 325 325 327 327 327 327 328 329 329 328 328 327 326 327 328 328 328 328 328 327 327 327 327 328 328 328 329 329 328 329 330 330 328 328 328 328 327 327 327 326 326 325 325 325 324
323 325 325 325 326 326 326 326 326 326 327 327 327 327 327 326 326 326 326 327 327 326 327 328 329 330 329 328 328 326 325 326 327 327 327 328 328 329 328 328 327 327 328 328 328 328 328 328 328 329 328 328 328 328 327 327 326 326 326 325 325 324 324
323 324 325 325 325 324 324 324 325 325 326 327 327 327 327 327 326 327 327 328 328 327 327 328 328 329 330 329 328 327 325 326 327 327 327 328 329 330 330 328 327 327 328 328 328 327 327 327 328 328 328 328 328 327 327 325 325 326 325 325 324 324 324
321 323 323 323 323 323 323 324 324 325 325 326 326 326 327 327 327 327 328 328 328 328 328 327 327 328 329 329 328 327 327 327 328 328 327 327 327 328 328 327 327 328 328 328 328 327 327 328 328 328 328 328 328 327 326 326 326 326 325 324 324 323 323
319 320 320 321 322 322 323 323 324 324 325 325 325 325 326 327 327 327 328 328 328 328 328 327 327 328 329 329 329 328 328 328 329 328 328 327 328 327 327 327 328 328 327 327 327 327 327 328 328 328 328 328 327 327 326 326 327 327 325 324 323 323 322
317 318 319 321 322 322 321 321 322 323 324 324 324 325 326 326 327 327 327 327 327 327 328 328 328 328 327 328 328 328 329 328 328 328 328 328 328 327 327 327 328 327 327 328 328 327 326 327 327 327 327 327 326 326 326 325 326 326 325 323 323 323 322
317 317 318 319 320 320 320 320 320 321 322 323 323 325 326 326 326 326 326 327 327 327 327 328 329 327 327 327 327 327 328 328 328 328 327 327 328 328 327 327 327 327 328 329 329 328 327 327 327 327 326 326 325 325 324 324 325 326 325 324 323 323 321
316 316 317 318 319 319 319 319 319 320 321 322 323 324 325 325 325 325 326 327 327 327 326 327 328 328 327 327 326 326 327 327 327 327 326 326 327 328 328 328 327 328 328 328 328 328 328 327 327 327 326 325 324 324 324 324 325 325 324 323 322 321 320
315 315 316 318 318 318 318 318 318 319 320 321 322 323 323 323 323 323 324 325 326 327 326 326 327 328 327 326 325 325 326 327 328 327 326 326 327 327 327 327 327 327 328 327 327 327 328 327 327 326 325 324 324 324 324 324 324 324 323 323 322 320 320
315 315 316 318 318 317 317 318 318 319 320 320 321 321 321 322 322 322 323 324 325 326 326 326 326 327 326 325 325 325 326 326 325 326 326 327 327 327 327 326 326 327 327 328 327 327 327 328 327 326 326 326 325 325 325 325 324 324 323 322 321 320 319
315 316 317 318 318 317 318 318 318 318 319 319 320 320 320 320 321 321 322 323 324 325 326 327 326 325 324 324 324 323 323 323 323 324 325 326 326 326 327 326 326 327 327 327 328 327 327 327 327 326 326 326 325 325 325 325 324 323 322 321 320 319 319
316 317 318 319 319 319 319 318 318 318 318 318 318 319 319 319 319 320 321 322 323 324 326 327 326 325 324 323 323 323 323 323 323 324 325 325 325 326 326 326 326 326 326 326 327 326 324 325 325 325 325 325 324 324 324 324 323 322 322 321 320 320 319
317 317 318 319 319 319 318 318 317 317 317 317 317 318 318 319 319 320 322 322 323 323 324 325 325 324 324 323 323 323 323 324 324 325 325 325 325 326 326 326 326 325 325 326 326 324 323 324 324 324 325 325 324 324 324 324 323 323 323 322 320 320 320
317 317 318 319 319 318 317 317 317 317 316 316 316 317 318 318 319 320 321 322 322 322 322 322 323 322 321 321 322 322 321 322 323 325 325 325 325 325 325 324 325 325 325 325 325 324 324 324 324 324 325 325 324 324 324 323 323 322 323 322 321 320 320
317 317 317 317 317 317 317 316 316 316 316 315 315 316 317 317 317 318 319 320 320 321 321 321 322 321 320 321 321 320 318 318 320 322 322 323 324 324 323 323 324 324 324 323 324 324 323 322 322 323 324 325 325 325 324 323 323 323 322 322 321 320 320
316 316 316 316 315 316 316 316 315 315 314 314 314 315 315 316 316 316 317 318 318 319 319 320 321 320 319 320 319 318 316 317 318 320 320 321 322 322 322 322 323 323 323 323 323 322 321 319 319 320 322 323 323 323 323 323 323 323 322 322 322 321 321
315 315 315 315 314 314 314 315 315 314 313 313 313 314 314 315 315 315 316 316 317 317 318 319 319 319 318 318 317 316 315 314 316 318 319 319 320 321 321 322 321 322 322 322 322 321 319 317 318 318 318 319 319 319 319 319 320 320 320 321 320 320 319
312 313 313 314 313 313 313 314 314 314 313 313 313 313 314 314 315 315 315 315 316 316 317 317 317 317 316 316 316 315 314 313 314 315 316 316 317 318 319 319 319 320 321 321 321 321 319 317 316 316 315 316 317 316 316 316 316 316 316 316 316 315 315
311 312 312 313 312 312 312 312 313 313 313 313 313 313 313 313 314 314 314 314 314 314 314 315 315 315 315 315 315 315 314 314 314 314 314 315 315 315 316 316 316 318 319 320 321 320 319 317 316 315 315 315 316 315 315 314 314 314 314 314 314 313 312
311 312 312 313 312 312 312 311 312 312 312 312 312 312 312 312 312 312 312 313 312 312 312 313 313 313 313 314 314 314 314 314 314 314 314 314 314 314 314 314 314 315 316 317 318 318 317 316 315 315 315 315 315 315 314 314 313 313 312 311 310 309 308
310 310 311 311 311 311 311 311 311 311 311 311 311 311 310 310 311 310 310 310 310 310 310 310 310 311 311 312 312 312 312 312 312 312 312 312 312 312 312 312 313 313 314 314 315 315 315 315 315 315 314 314 314 313 313 311 310 309 308 307 307 306 304
Wind_Speed
10 10 10 11 13 14 13 14 15 16 17 17 18 16 14 14 12 13 14 15 17 19 20 21 22 23 23 22 23 25 26 27 27 28 26 25 25 26 26 25 26 23 16 17 20 18 17 19 21 20 18 18 17 16 15 15 15 13 12 12 13 13 13
10 10 9 10 13 14 14 15 16 17 18 19 18 15 13 13 13 16 18 17 18 20 20 21 21 21 23 23 23 25 26 27 26 26 26 26 25 26 26 25 27 24 17 17 19 18 18 18 20 22 21 20 18 18 17 16 15 15 14 13 13 14 14
9 11 11 11 13 15 15 16 17 18 20 20 17 14 16 18 17 18 20 20 20 20 19 20 21 22 23 24 23 24 26 27 26 25 25 25 25 25 25 25 27 26 20 19 19 19 18 16 16 19 22 22 20 19 19 18 17 16 16 15 14 15 15
7 10 13 14 14 15 16 17 19 20 22 21 19 18 19 20 19 19 20 21 21 21 19 19 22 24 23 24 24 23 25 27 25 24 24 23 24 24 23 23 28 29 25 23 21 20 19 18 15 16 19 20 19 18 19 19 19 18 18 17 15 15 16
7 10 12 14 15 15 16 17 19 21 22 22 22 22 21 20 20 20 21 22 22 22 21 20 22 24 22 22 23 22 24 26 24 24 24 22 23 23 22 22 25 28 27 26 24 22 20 18 17 15 17 19 18 17 17 18 18 19 19 17 16 15 16
9 11 12 13 13 13 14 15 16 18 20 21 21 21 20 20 21 22 24 24 24 23 22 21 21 22 22 22 22 22 23 26 26 25 24 23 23 22 22 21 22 24 25 26 26 23 19 18 18 16 16 18 19 18 17 17 19 20 19 18 17 16 16
10 11 12 13 13 13 14 14 15 16 18 20 20 19 20 21 22 23 24 25 26 26 24 22 22 22 22 22 22 21 21 23 26 27 26 25 24 22 22 21 21 22 24 26 26 24 22 21 20 19 18 18 18 17 18 18 20 20 20 19 19 18 17
10 11 11 12 12 14 15 15 16 18 19 20 20 20 20 22 23 23 25 26 26 26 25 23 24 24 22 21 21 21 19 21 25 26 27 26 25 24 23 21 21 21 23 25 26 25 23 21 20 20 20 21 20 18 19 21 21 20 19 19 20 18 17
8 8 8 8 9 11 13 15 17 18 19 19 20 21 21 23 24 24 25 26 24 24 24 24 24 23 21 20 19 20 19 20 23 25 26 26 25 24 23 22 21 21 21 23 24 24 22 19 19 20 21 23 24 23 22 23 24 21 19 20 20 18 15
5 5 5 6 8 10 12 15 18 18 17 18 19 21 22 24 24 23 23 23 22 22 23 23 23 21 19 18 18 18 19 19 21 24 25 25 24 24 24 23 22 21 21 22 22 22 20 19 20 21 21 23 25 26 26 27 26 23 21 21 21 20 18
6 6 7 9 10 12 14 16 17 16 16 18 20 21 23 24 24 22 21 19 19 20 22 21 19 17 18 18 17 18 19 19 21 24 25 25 25 24 24 23 22 21 21 21 21 21 20 21 22 22 22 24 25 25 25 27 27 24 22 23 22 22 21
8 9 10 12 13 15 16 16 17 17 16 18 20 21 23 24 22 21 19 17 16 16 18 18 16 15 16 17 17 18 20 20 21 24 25 25 25 24 25 24 22 22 21 21 22 22 22 23 23 23 23 24 26 25 23 24 26 24 23 25 25 22 20
9 10 10 11 13 14 15 16 17 17 17 18 19 20 21 21 19 17 15 14 13 12 13 15 15 14 14 15 16 18 19 19 20 22 24 25 25 24 24 24 21 21 22 23 24 24 23 24 24 25 24 23 27 27 23 23 25 25 25 26 27 23 18
9 10 11 10 11 12 13 14 15 15 16 17 18 18 18 17 14 13 11 10 10 10 11 13 14 14 14 14 14 15 16 18 19 19 20 22 23 23 23 23 22 22 23 24 24 24 24 24 23 25 24 23 27 27 25 24 25 26 28 26 25 23 17
10 10 11 11 11 11 12 12 13 15 15 15 16 16 15 13 11 11 9 8 9 10 11 11 13 14 14 14 14 14 15 17 18 19 19 19 21 22 22 23 23 23 23 23 25 25 25 24 22 23 23 23 26 27 26 26 25 26 28 26 24 23 19
13 13 14 14 13 13 13 13 13 14 14 14 14 14 13 13 11 11 10 9 10 10 9 9 10 12 12 13 15 16 15 15 17 19 19 19 20 21 21 22 22 22 23 24 26 26 25 23 22 22 21 21 24 27 27 26 24 25 27 26 26 25 21
14 14 14 14 13 13 13 13 13 14 14 13 13 13 12 12 12 12 11 10 10 9 8 8 9 10 11 11 12 13 13 14 17 19 19 19 20 20 20 21 21 22 23 24 26 26 24 23 21 21 20 21 23 24 24 22 21 24 29 28 27 25 23
13 13 13 13 13 12 12 12 13 14 13 13 13 12 12 12 12 11 10 8 8 8 7 6 7 8 10 10 10 11 11 12 16 18 19 19 19 19 19 19 20 21 22 23 24 23 23 24 22 21 22 22 21 20 21 21 21 26 31 30 29 26 23
12 12 12 11 11 12 12 12 12 12 12 13 12 12 12 12 11 11 9 6 6 7 5 4 4 6 9 10 10 10 10 11 13 16 18 18 17 17 17 16 18 20 21 21 23 22 21 22 22 22 22 21 20 20 20 21 23 26 30 31 30 28 25
11 9 9 10 11 12 13 12 11 11 11 11 11 11 12 11 10 10 9 6 5 6 4 3 4 6 8 10 11 11 11 11 12 13 15 15 15 15 15 15 18 20 20 20 21 20 20 20 21 22 22 20 20 21 21 20 21 23 28 30 28 27 27
12 9 9 10 10 12 13 13 13 11 11 11 11 12 12 10 9 9 8 6 5 4 4 3 4 6 7 8 10 11 11 11 12 12 13 14 14 14 14 15 17 18 18 18 19 19 19 20 21 21 21 19 19 21 22 22 22 22 26 29 28 26 26
15 14 12 12 13 14 15 15 15 13 12 11 10 12 13 11 9 8 8 7 5 4 4 3 4 5 5 6 7 8 9 10 10 11 11 12 14 14 15 14 14 15 17 17 18 18 17 19 20 19 20 19 18 20 22 23 23 24 26 29 29 26 24
14 14 14 14 15 15 15 15 15 14 13 10 9 10 12 12 11 10 8 8 6 4 2 2 4 4 5 5 5 5 6 7 8 8 8 10 12 12 13 13 13 14 16 16 16 16 16 17 17 16 17 19 18 18 20 21 22 24 26 26 27 26 25
13 12 13 14 15 16 16 15 15 14 13 11 10 10 11 12 13 12 10 9 8 5 2 2 3 4 5 6 4 3 5 6 7 6 6 8 10 9 9 11 13 14 14 14 14 15 15 16 15 14 15 18 19 19 22 23 22 24 26 24 24 26 25
13 12 13 14 16 17 17 17 17 16 15 15 12 11 11 12 13 12 11 11 8 5 1 2 3 4 5 5 5 4 5 6 6 6 6 6 7 6 7 9 11 11 12 12 13 15 15 15 13 12 13 17 20 21 24 25 23 25 27 25 25 26 24
14 14 13 15 17 19 20 21 21 20 18 16 15 14 13 13 13 12 11 11 10 6 2 3 5 5 5 5 5 5 5 4 3 3 4 4 4 4 6 8 8 9 11 12 13 15 15 14 13 13 14 18 22 25 27 26 24 25 26 24 26 27 24
13 13 14 15 17 20 21 22 21 21 21 20 21 21 20 18 17 16 14 13 12 9 4 6 9 8 7 7 5 5 5 4 3 2 2 3 4 4 5 7 8 9 10 11 12 14 14 13 14 15 16 18 21 23 24 24 25 26 24 23 26 28 26
13 14 15 15 17 20 20 20 20 22 22 23 24 24 24 23 20 18 17 15 13 9 5 9 11 10 10 7 5 4 3 2 2 2 1 3 4 5 7 8 9 9 10 10 10 10 10 13 15 17 17 16 16 16 16 16 19 22 24 22 19 21 24
14 15 15 15 17 18 18 19 19 20 21 23 24 24 25 25 23 21 21 21 18 14 12 17 17 13 11 10 9 10 9 5 3 3 4 4 4 5 7 9 9 10 12 14 13 10 10 14 17 17 16 15 15 14 13 13 13 16 19 18 14 15 20
14 14 14 15 16 16 17 18 18 19 20 22 24 24 25 25 24 24 24 26 27 24 22 24 23 19 17 16 15 16 16 13 10 7 6 6 7 7 7 8 9 11 12 13 14 14 14 17 18 18 17 16 15 14 14 13 12 12 13 15 15 17 18
13 14 14 14 15 15 16 17 17 18 19 21 23 24 24 24 24 25 25 26 28 28 27 26 26 25 24 20 18 18 19 18 17 14 12 9 8 10 11 10 8 8 9 12 15 15 12 11 14 17 17 16 15 14 14 13 13 13 13 13 14 15 16
13 13 13 14 15 15 16 16 16 17 17 19 22 22 22 22 23 25 26 26 25 26 27 27 25 24 23 20 20 22 22 22 21 18 16 13 11 13 14 12 10 9 12 15 15 13 10 8 10 12 13 14 15 15 15 14 14 14 14 14 14 14 14
15 14 13 13 15 16 15 15 15 15 16 17 19 20 21 21 23 24 25 26 25 25 26 26 24 22 20 19 17 17 18 22 23 20 18 15 14 15 14 14 15 16 20 21 17 13 13 12 13 14 15 16 17 17 16 16 14 14 14 14 13 12 12
19 18 15 13 15 17 17 16 16 17 17 18 19 21 22 22 24 25 26 26 27 27 26 26 25 23 21 20 18 14 15 19 20 19 19 18 16 16 17 17 17 16 17 19 16 11 12 13 13 14 14 15 15 15 14 14 13 12 12 12 11 10 9
22 21 18 15 16 19 19 19 19 19 19 20 21 22 24 24 25 27 27 27 28 28 27 26 24 23 21 20 19 18 18 19 17 14 16 17 16 16 16 18 19 15 12 12 11 10 12 14 15 14 14 14 14 13 11 11 9 9 9 9 9 8 7
24 22 21 19 19 21 21 21 21 21 21 21 22 22 23 24 25 26 27 28 28 28 28 27 25 23 22 20 19 19 19 18 16 13 14 16 17 15 12 12 13 11 9 10 10 9 10 13 13 13 13 13 12 11 10 10 9 7 6 6 5 5 5
28 26 26 25 25 26 26 25 25 24 24 24 25 25 25 25 25 27 28 28 28 28 28 28 26 25 23 22 21 20 19 18 16 14 15 17 17 16 13 10 8 6 6 7 8 8 7 7 7 8 9 11 11 12 12 11 10 9 8 8 8 9 8
Wind_Direction
224 236 256 267 270 271 267 265 266 265 264 263 264 264 260 261 273 282 274 267 264 259 256 255 255 253 250 247 246 245 242 241 239 240 240 236 235 236 235 231 225 220 212 209 217 220 211 206 208 213 219 221 220 220 220 220 217 211 211 213 213 210 204
213 227 255 268 265 266 265 267 268 268 269 268 266 267 265 264 276 280 272 266 266 263 256 255 255 253 251 247 246 246 244 241 238 238 238 237 237 236 234 229 221 214 208 205 210 218 219 211 206 207 210 213 216 217 214 214 215 212 214 215 212 211 206
221 228 242 255 260 266 267 270 272 273 276 274 269 274 280 278 276 276 276 277 276 271 264 259 256 254 252 249 247 246 244 241 236 235 235 233 234 234 233 226 216 209 208 206 203 211 218 215 213 213 211 210 213 212 208 209 211 211 215 216 210 208 205
245 240 240 247 257 265 269 272 275 278 283 285 286 291 291 285 279 277 278 279 276 271 267 265 264 262 260 256 251 247 245 242 236 232 231 228 228 231 229 222 214 211 214 216 212 213 218 216 215 217 213 211 213 213 208 206 207 210 213 211 209 207 201
257 255 253 257 262 266 270 274 279 283 288 292 296 298 299 293 285 279 275 271 267 264 263 265 267 266 265 259 253 250 248 245 238 231 228 223 221 223 222 218 215 215 219 223 222 219 219 218 217 214 208 206 208 210 207 202 202 207 209 205 207 207 199
266 272 275 277 276 275 278 280 282 286 291 297 301 304 305 302 293 287 280 271 264 262 262 263 265 265 264 260 255 252 250 247 242 234 229 224 221 220 219 218 216 215 217 219 221 220 215 212 214 213 204 201 202 201 199 200 200 201 201 203 206 206 203
278 283 286 291 294 293 291 289 290 294 300 305 308 311 309 304 299 295 288 277 270 266 262 262 261 258 257 255 252 250 248 246 243 238 233 226 222 222 221 218 215 214 214 214 214 214 211 208 211 210 200 195 199 199 195 196 198 198 197 199 199 198 203
289 293 297 300 303 302 299 298 298 301 305 308 310 312 311 305 300 296 289 283 277 269 262 261 259 254 249 247 246 247 246 244 241 238 235 230 224 221 218 214 211 211 211 209 208 211 212 212 214 213 203 192 189 192 193 193 196 200 199 195 191 193 203
294 300 304 305 305 304 300 299 299 301 304 308 312 314 312 308 303 296 288 284 280 270 262 260 260 254 247 243 243 244 242 242 240 236 235 234 227 220 216 211 208 208 204 203 206 209 211 212 212 212 210 201 190 184 187 192 196 198 197 193 188 189 204
289 291 295 296 296 294 293 295 297 301 308 313 315 315 313 310 306 299 291 286 282 271 261 261 267 262 252 247 247 247 244 240 238 237 235 233 227 222 218 212 209 207 202 201 205 207 208 210 209 209 212 212 202 189 184 188 195 196 191 191 188 184 200
283 284 285 284 285 287 290 294 297 303 312 315 315 315 315 313 309 306 300 290 283 275 263 260 270 268 255 250 251 249 245 239 237 237 234 230 226 222 219 214 210 208 205 205 206 210 213 212 210 209 208 210 209 202 193 188 190 193 187 187 192 191 198
289 284 280 278 280 286 292 295 298 305 314 317 318 319 319 319 318 316 310 296 284 276 265 259 264 262 252 251 251 247 244 238 234 233 231 229 226 220 216 215 211 209 209 209 210 215 216 213 213 212 206 205 208 208 204 195 189 188 184 185 194 202 206
301 299 298 295 293 296 299 300 301 309 318 321 321 322 324 329 331 324 314 300 286 276 268 264 261 255 249 249 248 248 249 242 234 231 230 228 224 216 214 214 212 211 211 212 214 215 215 212 212 212 208 205 204 204 204 202 193 184 182 188 197 204 210
324 326 331 331 323 318 316 313 312 318 325 327 326 327 330 336 337 328 317 304 292 281 273 266 258 252 250 247 240 239 243 238 232 232 229 227 223 217 213 213 214 215 214 214 214 215 214 212 209 210 210 204 202 202 200 202 199 187 181 189 200 203 204
5 4 9 11 360 348 341 333 328 328 330 333 332 332 332 331 328 326 323 316 307 296 284 269 254 248 247 243 236 231 230 228 228 229 227 224 223 222 218 217 218 218 217 215 213 216 218 216 211 208 206 204 205 203 198 199 202 192 181 185 196 201 200
31 28 29 26 16 8 358 347 341 338 337 337 333 332 333 331 324 319 316 320 321 313 297 277 252 240 237 235 233 229 228 228 227 225 224 221 222 224 224 223 221 218 218 216 215 218 220 218 215 210 206 204 205 204 200 201 205 198 186 182 191 198 196
37 32 29 24 14 7 1 353 349 346 344 340 334 331 333 334 332 323 316 320 325 321 307 284 253 236 232 225 220 222 226 226 222 221 223 220 221 225 225 225 222 218 217 218 218 217 216 214 214 213 212 207 206 208 206 205 207 200 188 182 189 195 193
40 30 24 22 9 358 356 355 351 350 352 350 342 337 335 334 335 330 323 324 327 327 316 289 259 239 231 218 210 215 219 216 213 216 220 220 222 227 230 226 220 218 218 220 219 216 214 214 213 212 214 210 208 210 206 204 205 197 188 183 185 188 190
34 23 17 14 359 346 346 346 343 347 355 356 349 342 339 337 333 327 322 325 336 333 312 278 258 231 221 217 213 213 214 212 213 215 217 219 220 227 232 226 218 220 222 223 224 221 217 215 211 211 213 211 210 207 200 202 206 199 190 185 181 181 188
19 13 2 350 341 343 347 346 341 339 342 349 352 350 347 343 338 335 329 330 343 334 304 265 242 222 215 213 210 210 215 220 222 221 218 218 219 221 224 220 217 221 224 226 226 223 221 217 214 214 213 207 204 200 194 197 202 200 195 190 183 183 188
15 15 359 348 355 3 6 2 354 343 333 339 356 2 357 350 343 342 340 343 347 324 301 270 228 220 223 220 213 214 217 218 224 227 220 219 219 216 217 218 217 219 221 223 223 221 222 222 219 217 213 207 202 198 196 196 195 194 192 187 184 185 189
27 26 14 16 25 22 16 9 1 355 344 343 2 12 5 357 352 345 337 335 324 297 293 271 222 205 208 219 222 224 223 224 231 229 219 222 221 210 209 216 218 217 217 218 219 218 219 221 219 215 211 207 201 197 196 195 193 192 187 181 181 186 189
35 29 19 24 29 23 16 10 3 0 357 355 8 15 7 2 2 359 347 335 320 307 304 233 218 203 198 207 212 217 222 228 234 225 212 222 224 203 196 207 215 216 216 218 218 215 211 212 212 214 213 206 198 195 194 192 192 190 184 179 183 187 188
35 31 25 26 27 22 15 12 8 8 12 18 20 14 4 0 2 3 359 349 333 321 342 154 198 212 212 212 209 210 215 213 218 221 210 218 227 213 199 209 217 218 219 219 215 211 210 212 209 209 208 200 196 199 195 187 184 184 181 181 187 190 189
37 35 33 32 31 28 24 24 27 29 31 32 27 16 6 1 359 358 356 355 349 329 323 112 156 187 196 205 214 222 225 212 208 223 227 219 226 232 225 219 215 216 219 216 209 204 205 207 205 199 194 187 187 191 187 182 183 186 186 187 190 190 191
48 42 42 43 41 40 41 42 43 45 45 44 41 35 30 22 14 7 1 3 8 360 5 107 134 156 161 175 196 202 209 204 185 215 246 238 230 237 238 224 208 205 208 206 203 201 197 195 194 190 189 189 186 185 184 185 188 188 189 191 190 188 189
56 51 52 53 52 53 55 55 54 54 53 51 50 48 47 44 38 29 22 18 20 18 44 112 132 148 151 157 172 168 168 173 169 196 256 262 241 221 212 214 209 203 204 205 204 195 184 186 189 187 190 196 194 191 190 189 185 181 183 187 185 184 186
58 59 62 63 62 63 64 62 58 55 53 52 52 51 51 51 50 43 37 36 36 36 74 116 126 136 136 133 131 109 94 104 140 160 193 229 227 192 180 193 199 194 192 192 194 188 180 187 189 186 190 195 195 195 193 190 187 185 188 191 183 176 181
60 66 70 71 72 71 67 63 60 57 55 55 54 52 53 56 58 57 55 57 58 64 94 108 109 113 107 90 72 61 54 54 74 110 147 167 179 174 177 186 186 186 187 179 173 176 188 189 185 182 185 184 181 182 178 177 189 196 200 206 205 193 191
67 74 79 78 76 75 71 67 64 61 58 57 56 55 57 61 62 62 62 64 64 69 84 91 89 84 75 66 64 65 61 59 61 70 106 135 151 154 149 150 159 170 172 166 167 173 176 180 182 183 181 174 171 175 171 166 173 186 198 207 210 208 206
74 80 83 81 78 75 73 72 71 68 64 61 62 62 63 64 65 63 63 65 65 68 73 75 73 71 64 59 62 64 61 59 59 58 63 78 105 116 111 112 130 151 151 152 165 172 165 169 178 175 171 169 168 167 163 163 170 176 184 193 197 202 204
78 83 84 82 78 74 72 74 75 73 69 67 67 67 66 67 67 66 66 66 65 66 70 71 71 69 67 66 67 62 56 57 59 56 52 58 79 96 99 102 109 136 156 156 157 156 146 154 165 157 158 168 166 155 153 161 171 174 176 181 185 189 191
75 77 79 81 80 76 73 73 74 72 70 68 68 68 67 68 70 70 68 68 67 67 70 73 72 70 72 75 71 59 51 54 55 54 54 58 70 86 95 100 105 123 141 140 134 131 131 142 149 140 139 149 149 145 149 159 167 172 176 179 183 187 190
70 67 68 76 81 79 74 71 70 68 68 68 68 69 69 70 72 72 71 70 71 71 73 76 76 76 76 75 72 67 68 68 63 58 60 60 61 70 82 91 96 107 121 122 124 134 138 142 150 143 136 136 135 137 147 155 161 171 177 181 185 189 190
70 68 67 72 79 80 78 75 74 72 70 70 70 71 71 71 72 72 71 71 71 71 71 73 76 78 78 78 79 79 83 87 85 79 77 75 68 61 62 71 78 81 87 100 120 147 151 149 154 150 140 135 132 135 142 145 149 162 174 180 184 180 173
76 74 74 74 76 79 81 79 79 78 77 76 74 73 73 72 71 70 68 68 69 69 68 67 67 68 70 74 79 82 86 92 96 97 95 92 88 82 68 57 59 59 60 78 99 120 132 134 135 135 133 134 138 148 153 150 147 155 169 175 168 153 149
83 82 82 82 81 82 84 83 83 82 81 80 80 80 79 76 75 74 72 71 70 69 69 69 67 66 65 66 69 73 75 77 80 86 91 88 85 85 81 70 65 68 72 83 96 106 110 109 112 123 134 138 145 155 157 152 147 144 140 129 114 107 102